TimeEDT,TemperatureF,Dew PointF,Humidity,Sea Level PressureIn,VisibilityMPH,Wind Direction,Wind SpeedMPH,Gust SpeedMPH,PrecipitationIn,Events,Conditions,WindDirDegrees,DateUTC
12:52 AM,52.0,48.0,86,30.30,10.0,Calm,Calm,-,N/A,,Scattered Clouds,0,2013-10-09 04:52:00
1:52 AM,54.0,46.9,77,30.29,10.0,North,3.5,-,N/A,,Mostly Cloudy,10,2013-10-09 05:52:00
2:52 AM,54.0,46.9,77,30.28,10.0,North,4.6,-,N/A,,Overcast,360,2013-10-09 06:52:00
3:52 AM,53.1,46.0,77,30.29,10.0,North,4.6,-,N/A,,Overcast,10,2013-10-09 07:52:00
4:52 AM,54.0,45.0,72,30.30,10.0,North,4.6,-,N/A,,Overcast,360,2013-10-09 08:52:00
5:52 AM,53.1,46.0,77,30.28,10.0,North,6.9,-,N/A,,Mostly Cloudy,350,2013-10-09 09:52:00
6:52 AM,52.0,45.0,77,30.30,10.0,North,5.8,-,N/A,,Mostly Cloudy,360,2013-10-09 10:52:00
7:52 AM,52.0,45.0,77,30.31,10.0,North,9.2,-,N/A,,Mostly Cloudy,10,2013-10-09 11:52:00
8:52 AM,53.1,45.0,74,30.32,10.0,North,10.4,-,N/A,,Mostly Cloudy,360,2013-10-09 12:52:00
9:52 AM,55.0,46.0,72,30.32,10.0,North,9.2,-,N/A,,Mostly Cloudy,10,2013-10-09 13:52:00
10:52 AM,57.9,48.0,70,30.34,10.0,North,8.1,-,N/A,,Mostly Cloudy,360,2013-10-09 14:52:00
11:52 AM,60.1,46.9,62,30.33,10.0,NE,8.1,-,N/A,,Mostly Cloudy,40,2013-10-09 15:52:00
12:52 PM,61.0,46.0,58,30.31,10.0,NNE,12.7,-,N/A,,Overcast,30,2013-10-09 16:52:00
1:52 PM,61.0,46.9,60,30.30,10.0,North,11.5,-,N/A,,Overcast,10,2013-10-09 17:52:00
2:52 PM,61.0,48.0,62,30.30,10.0,NE,9.2,-,N/A,,Overcast,50,2013-10-09 18:52:00
3:52 PM,61.0,48.0,62,30.28,10.0,NE,12.7,-,N/A,,Overcast,50,2013-10-09 19:52:00
4:52 PM,60.1,48.0,64,30.27,10.0,NNE,9.2,-,0.00,Rain,Light Rain,30,2013-10-09 20:52:00
5:52 PM,57.9,50.0,75,30.26,10.0,NNE,11.5,-,0.00,Rain,Light Rain,30,2013-10-09 21:52:00
6:52 PM,55.9,50.0,80,30.27,10.0,NNE,9.2,-,0.04,Rain,Light Rain,30,2013-10-09 22:52:00
7:52 PM,55.9,51.1,84,30.27,10.0,North,8.1,-,0.03,Rain,Light Rain,360,2013-10-09 23:52:00
8:52 PM,55.9,51.1,84,30.26,10.0,North,9.2,-,0.04,Rain,Light Rain,350,2013-10-10 00:52:00
9:52 PM,55.0,50.0,83,30.26,10.0,North,8.1,-,0.02,Rain,Light Rain,360,2013-10-10 01:52:00
10:52 PM,54.0,50.0,86,30.25,10.0,North,11.5,-,0.00,Rain,Light Rain,360,2013-10-10 02:52:00
11:52 PM,54.0,48.9,83,30.23,7.0,North,11.5,-,0.01,Rain,Light Rain,360,2013-10-10 03:52:00